GPS BIIR-10 (PRN 22)

Last updated on July 6, 2021, 3:39 p.m. UTC

1 28129U 03058A   21186.03824030 -.00000070  00000-0  00000-0 0  9994
2 28129  53.5948  95.9099 0071406 305.7134  53.6336  2.00549157128527
UTC
Height (km)
Latitude
Longitude
Inclination
Orbital Period
UTC large
Height (km)
Speed (km/s)
/
Latitude / Longitude
Inclination (degrees)
Orbital Period (minutes)
Azimuth
Elevation
Range (km)
Doppler Factor
iOS Compass Heading
iOS Angle

Next 30 passes for location: Hong Kong

Rise time Rise Azimuth (degrees) Set time Set Azimuth (degrees) Duration Max altitude (degrees)

No matching passes for this satellites